Météo par heure à Tebessa

Ce jour, 30 Novembre, Lundi

Heure Température Précipitation Vent Pression Humidité
00:00 +8°C° 0 mm 4 m/s 684 mmHg 90%
01:00 +8°C° 0 mm 4 m/s 684 mmHg 89%
02:00 +7°C° 0 mm 4 m/s 684 mmHg 90%
03:00 +8°C° 0 mm 3 m/s 684 mmHg 90%
04:00 +7°C° 0 mm 3 m/s 684 mmHg 91%
05:00 +7°C° 0 mm 3 m/s 685 mmHg 92%
06:00 +7°C° 0 mm 3 m/s 685 mmHg 92%
07:00 +7°C° 0 mm 2 m/s 686 mmHg 93%
08:00 +8°C° 0 mm 3 m/s 686 mmHg 86%
09:00 +10°C° 0 mm 3 m/s 687 mmHg 79%
10:00 +11°C° 0 mm 3 m/s 688 mmHg 72%
11:00 +12°C° 0 mm 3 m/s 688 mmHg 68%
12:00 +13°C° 0 mm 3 m/s 688 mmHg 64%
13:00 +14°C° 0 mm 3 m/s 688 mmHg 59%
14:00 +14°C° 0 mm 3 m/s 688 mmHg 59%
15:00 +13°C° 0 mm 3 m/s 688 mmHg 60%
16:00 +13°C° 0 mm 3 m/s 688 mmHg 61%
17:00 +13°C° 0 mm 2 m/s 688 mmHg 67%
18:00 +12°C° 0 mm 2 m/s 688 mmHg 74%
19:00 +11°C° 0 mm 1 m/s 688 mmHg 80%
20:00 +11°C° 0 mm 1 m/s 688 mmHg 82%
21:00 +9°C° 0 mm 0 m/s 688 mmHg 85%
22:00 +9°C° 0 mm 0 m/s 688 mmHg 87%
23:00 +9°C° 0 mm 0 m/s 688 mmHg 87%

Demain, 1 Décembre, Mardi

Heure Température Précipitation Vent Pression Humidité
00:00 +9°C° 0 mm 1 m/s 688 mmHg 87%
01:00 +9°C° 0 mm 1 m/s 688 mmHg 87%
02:00 +9°C° 0 mm 1 m/s 687 mmHg 87%
03:00 +9°C° 0 mm 1 m/s 687 mmHg 87%
04:00 +9°C° 0 mm 1 m/s 687 mmHg 87%
05:00 +8°C° 0 mm 1 m/s 686 mmHg 86%
06:00 +8°C° 0 mm 1 m/s 686 mmHg 86%
07:00 +7°C° 0 mm 2 m/s 686 mmHg 85%
08:00 +9°C° 0 mm 2 m/s 687 mmHg 77%
09:00 +10°C° 0 mm 2 m/s 687 mmHg 70%
10:00 +13°C° 0 mm 2 m/s 687 mmHg 62%
11:00 +13°C° 0 mm 3 m/s 687 mmHg 58%
12:00 +14°C° 0 mm 3 m/s 687 mmHg 53%
13:00 +15°C° 0 mm 4 m/s 686 mmHg 49%
14:00 +15°C° 0 mm 4 m/s 686 mmHg 49%
15:00 +14°C° 0 mm 4 m/s 685 mmHg 49%
16:00 +14°C° 0 mm 4 m/s 685 mmHg 48%
17:00 +13°C° 0 mm 3 m/s 684 mmHg 55%
18:00 +13°C° 0 mm 2 m/s 684 mmHg 63%
19:00 +10°C° 0 mm 2 m/s 684 mmHg 70%
20:00 +10°C° 0 mm 2 m/s 684 mmHg 72%
21:00 +10°C° 0 mm 2 m/s 684 mmHg 75%
22:00 +9°C° 0 mm 2 m/s 683 mmHg 77%
23:00 +9°C° 0 mm 2 m/s 683 mmHg 78%

Après-demain, 2 Décembre, Mercredi

Heure Température Précipitation Vent Pression Humidité
00:00 +9°C° 0 mm 2 m/s 683 mmHg 79%
01:00 +8°C° 0 mm 2 m/s 682 mmHg 79%
02:00 +8°C° 0 mm 2 m/s 682 mmHg 80%
03:00 +8°C° 0 mm 3 m/s 681 mmHg 81%
04:00 +8°C° 0 mm 3 m/s 681 mmHg 81%
05:00 +7°C° 0 mm 3 m/s 681 mmHg 82%
06:00 +7°C° 0 mm 3 m/s 681 mmHg 82%
07:00 +7°C° 0 mm 3 m/s 680 mmHg 82%
08:00 +7°C° 0 mm 4 m/s 680 mmHg 73%
09:00 +10°C° 0 mm 4 m/s 681 mmHg 65%
10:00 +11°C° 0 mm 4 m/s 681 mmHg 56%
11:00 +12°C° 0 mm 5 m/s 680 mmHg 51%
12:00 +13°C° 0 mm 6 m/s 680 mmHg 47%
13:00 +14°C° 0 mm 7 m/s 680 mmHg 43%
14:00 +14°C° 0 mm 7 m/s 680 mmHg 44%
15:00 +14°C° 0 mm 6 m/s 679 mmHg 45%
16:00 +14°C° 0 mm 6 m/s 679 mmHg 45%
17:00 +12°C° 0 mm 5 m/s 679 mmHg 51%
18:00 +11°C° 0 mm 4 m/s 679 mmHg 56%
19:00 +10°C° 0 mm 3 m/s 679 mmHg 61%
20:00 +9°C° 0 mm 3 m/s 679 mmHg 65%
21:00 +9°C° 0 mm 2 m/s 679 mmHg 68%
22:00 +9°C° 0 mm 2 m/s 679 mmHg 71%
23:00 +9°C° 0 mm 2 m/s 679 mmHg 71%

3 Décembre, Jeudi

Heure Température Précipitation Vent Pression Humidité
00:00 +9°C° 0 mm 3 m/s 679 mmHg 70%
01:00 +9°C° 0 mm 3 m/s 679 mmHg 70%
02:00 +7°C° 0.3 mm 4 m/s 679 mmHg 76%
03:00 +5°C° 0.3 mm 6 m/s 679 mmHg 81%
04:00 +5°C° 0.3 mm 7 m/s 678 mmHg 87%
05:00 +4°C° 0.2 mm 7 m/s 679 mmHg 85%
06:00 +4°C° 0.2 mm 6 m/s 679 mmHg 83%
07:00 +3°C° 0.2 mm 6 m/s 679 mmHg 82%
08:00 +4°C° 0 mm 7 m/s 680 mmHg 78%
09:00 +4°C° 0 mm 8 m/s 680 mmHg 74%
10:00 +5°C° 0 mm 9 m/s 681 mmHg 70%
11:00 +5°C° 0 mm 9 m/s 680 mmHg 67%
12:00 +6°C° 0 mm 9 m/s 680 mmHg 64%
13:00 +6°C° 0 mm 9 m/s 680 mmHg 61%
14:00 +8°C° 0 mm 7 m/s 680 mmHg 60%
15:00 +8°C° 0 mm 6 m/s 680 mmHg 58%
16:00 +8°C° 0 mm 4 m/s 680 mmHg 57%
17:00 +8°C° 0 mm 3 m/s 680 mmHg 61%
18:00 +7°C° 0 mm 2 m/s 680 mmHg 65%
19:00 +8°C° 0 mm 1 m/s 680 mmHg 69%
20:00 +6°C° 0 mm 2 m/s 680 mmHg 69%
21:00 +5°C° 0 mm 3 m/s 680 mmHg 69%
22:00 +5°C° 0 mm 4 m/s 680 mmHg 70%
23:00 +5°C° 0 mm 4 m/s 679 mmHg 70%

4 Décembre, Vendredi

Heure Température Précipitation Vent Pression Humidité
00:00 +4°C° 0 mm 4 m/s 679 mmHg 70%
01:00 +3°C° 0 mm 5 m/s 679 mmHg 70%
02:00 +3°C° 0 mm 5 m/s 678 mmHg 69%
03:00 +3°C° 0 mm 5 m/s 678 mmHg 68%
04:00 +4°C° 0 mm 4 m/s 677 mmHg 67%
05:00 +4°C° 0 mm 4 m/s 677 mmHg 68%
06:00 +4°C° 0 mm 4 m/s 677 mmHg 69%
07:00 +4°C° 0 mm 4 m/s 677 mmHg 70%
08:00 +5°C° 0 mm 5 m/s 677 mmHg 65%
09:00 +5°C° 0 mm 6 m/s 678 mmHg 60%
10:00 +8°C° 0 mm 7 m/s 678 mmHg 54%
11:00 +9°C° 0 mm 7 m/s 678 mmHg 51%
12:00 +9°C° 0 mm 7 m/s 677 mmHg 48%
13:00 +10°C° 0 mm 8 m/s 677 mmHg 45%
14:00 +10°C° 0 mm 7 m/s 677 mmHg 46%
15:00 +10°C° 0 mm 6 m/s 676 mmHg 48%
16:00 +10°C° 0 mm 6 m/s 676 mmHg 49%
17:00 +9°C° 0 mm 5 m/s 676 mmHg 54%
18:00 +7°C° 0 mm 5 m/s 675 mmHg 60%
19:00 +6°C° 0 mm 4 m/s 675 mmHg 66%
20:00 +6°C° 0 mm 5 m/s 675 mmHg 68%
21:00 +6°C° 0 mm 5 m/s 675 mmHg 70%
22:00 +5°C° 0 mm 6 m/s 675 mmHg 71%
23:00 +5°C° 0 mm 6 m/s 675 mmHg 72%

5 Décembre, Samedi

Heure Température Précipitation Vent Pression Humidité
00:00 +5°C° 0 mm 7 m/s 674 mmHg 73%
01:00 +5°C° 0 mm 7 m/s 674 mmHg 74%
02:00 +5°C° 0 mm 7 m/s 673 mmHg 74%
03:00 +5°C° 0 mm 7 m/s 673 mmHg 74%
04:00 +5°C° 0 mm 7 m/s 672 mmHg 74%
05:00 +4°C° 0 mm 7 m/s 672 mmHg 75%
06:00 +4°C° 0 mm 7 m/s 672 mmHg 76%
07:00 +4°C° 0 mm 7 m/s 672 mmHg 77%
08:00 +5°C° 0 mm 9 m/s 673 mmHg 68%
09:00 +7°C° 0 mm 10 m/s 673 mmHg 60%
10:00 +8°C° 0 mm 12 m/s 674 mmHg 51%
11:00 +8°C° 0 mm 12 m/s 674 mmHg 45%
12:00 +7°C° 0 mm 12 m/s 674 mmHg 39%
13:00 +7°C° 0 mm 12 m/s 674 mmHg 33%
14:00 +7°C° 0 mm 11 m/s 674 mmHg 34%
15:00 +6°C° 0 mm 11 m/s 674 mmHg 35%
16:00 +5°C° 0 mm 10 m/s 675 mmHg 35%
17:00 +3°C° 0 mm 9 m/s 675 mmHg 39%
18:00 +4°C° 0 mm 8 m/s 675 mmHg 43%
19:00 +3°C° 0 mm 7 m/s 676 mmHg 47%
20:00 +2°C° 0 mm 7 m/s 676 mmHg 52%
21:00 +2°C° 0 mm 7 m/s 676 mmHg 57%
22:00 0°C° 0 mm 7 m/s 677 mmHg 63%
23:00 0°C° 0 mm 7 m/s 677 mmHg 61%
Voir plus

Nous avons besoin de votre consentement

Meteoprog et ses fournisseurs de services peuvent stocker et accéder à des données personnelles telles que des cookies, des identifiants d'appareils ou d'autres technologies similaires sur votre appareil et traiter ces données pour personnaliser le contenu et les publicités, ainsi que pour fournir des fonctionnalités de médias sociaux et analyser le trafic.

  • Stocker et/ou accéder à des informations sur votre appareil

    Des cookies, des identifiants d'appareils ou d'autres informations peuvent être stockés ou accessibles sur votre appareil aux fins indiquées ci-dessus.

  • Annonces et contenus personnalisés, mesure des annonces et des contenus, connaissance de l'audience et développement de produits

    Les annonces et le contenu peuvent être personnalisés en fonction d'un profil. D'autres données peuvent être ajoutées pour mieux personnaliser les annonces et le contenu. Les performances des publicités et du contenu peuvent être mesurées. Il est possible d'obtenir des informations sur le public qui a vu les publicités et le contenu. Ces données peuvent être utilisées pour développer ou améliorer l'expérience de l'utilisateur, les systèmes et les logiciels.

En cliquant sur "J'accepte", vous autorisez l'utilisation de cookies, des identifiants d'appareils, des balises web ou d'autres technologies similaires. Vos paramètres peuvent être modifiés dans le navigateur de votre appareil.

Dans certains cas, des intérêts légitimes peuvent être invoqués plutôt qu'un consentement. Vous pouvez en savoir plus à ce sujet dans notre Politique de confidentialité et de cookies.